Location: BAF
(53.9483°N, 27.7497°E)
Time: 09:20:07
(UTC+03:00)

ISS - Visible Passes

Search period start: 18 July 2018 00:00
Search period end: 28 July 2018 00:00
Orbit: 402 x 408 km, 51.6° (Epoch: 18 July)

Date Brightness Start Highest point End Pass type
(mag) Time Alt. Az. Time Alt. Az. Time Alt. Az.
18 Jul -2.5 00:17:36 23° SE 00:17:36 23° SE 00:19:38 10° E visible
18 Jul -3.8 01:50:12 13° WSW 01:52:58 54° S 01:56:13 10° E visible
18 Jul -3.6 03:26:04 10° W 03:29:16 47° SSW 03:32:27 10° ESE visible
18 Jul -2.2 23:25:44 17° SE 23:25:44 17° SE 23:27:19 10° ESE visible
19 Jul -3.6 00:58:10 13° WSW 01:00:56 47° SSE 01:04:08 10° E visible
19 Jul -3.8 02:34:00 10° W 02:37:13 54° S 02:40:28 10° ESE visible
19 Jul -2.8 04:10:33 10° W 04:13:22 26° SSW 04:16:10 10° SSE visible
19 Jul -1.9 22:31:32 10° S 22:33:04 13° SE 22:34:37 10° ESE visible
20 Jul -3.4 00:05:51 10° SW 00:08:55 38° SSE 00:12:01 10° E visible
20 Jul -3.8 01:41:56 10° W 01:45:10 58° S 01:48:25 10° ESE visible
20 Jul -3.2 03:18:21 10° W 03:21:23 34° SSW 03:24:26 10° SE visible
20 Jul -3.0 23:14:02 10° SW 23:16:56 29° SSE 23:19:50 10° E visible
21 Jul -3.8 00:49:51 10° WSW 00:53:06 56° S 00:56:21 10° E visible
21 Jul -3.5 02:26:12 10° W 02:29:22 44° SSW 02:32:32 10° ESE visible
21 Jul -2.2 04:03:09 10° WSW 04:05:19 16° SW 04:07:29 10° S visible
21 Jul -2.5 22:22:25 10° SSW 22:24:58 21° SSE 22:27:31 10° E visible
21 Jul -3.7 23:57:50 10° WSW 00:01:01 50° S 00:04:13 10° E visible
22 Jul -3.8 01:34:05 10° W 01:37:18 52° S 01:40:32 10° ESE visible
22 Jul -2.7 03:10:43 10° W 03:13:24 23° SSW 03:16:04 10° SSE visible
22 Jul -3.4 23:05:50 10° SW 23:08:57 41° SSE 23:12:05 10° E visible
23 Jul -3.8 00:41:58 10° W 00:45:12 57° S 00:48:16 11° ESE visible
23 Jul -2.8 02:18:26 10° W 02:20:44 28° SW 02:20:44 28° SW visible
23 Jul -3.0 22:13:56 10° SW 22:16:54 32° SSE 22:19:53 10° E visible
23 Jul -3.8 23:49:52 10° WSW 23:53:06 57° S 23:56:21 10° E visible
24 Jul -3.3 01:26:14 10° W 01:29:01 39° SW 01:29:01 39° SW visible
24 Jul -3.7 22:57:47 10° WSW 23:00:59 53° S 23:04:12 10° E visible
25 Jul -3.7 00:34:04 10° W 00:37:17 49° S 00:38:00 40° SSE visible
25 Jul -3.5 22:05:43 10° WSW 22:08:52 44° SSE 22:12:02 10° E visible
25 Jul -3.8 23:41:55 10° W 23:45:09 56° S 23:47:11 20° ESE visible
26 Jul -2.0 01:18:25 10° W 01:19:48 19° WSW 01:19:48 19° WSW visible
26 Jul -3.8 22:49:45 10° W 22:53:00 58° S 22:56:15 10° E visible
27 Jul -3.2 00:26:09 10° W 00:29:05 37° SSW 00:29:05 37° SSW visible
27 Jul -3.7 21:57:37 10° WSW 22:00:50 55° S 22:04:04 10° E visible
27 Jul -3.5 23:33:57 10° W 23:37:07 46° SSW 23:38:25 29° SE visible
